Location: La Fredeussais
(48.1780°N, 1.3980°W)
Time: 04:52:56
(UTC+00:00)

X-37B - Pass Details

Date: 04 August 2021
Orbit: 381 x 393 km, 45.0° (Epoch: 29 August)

Event Time Altitude Azimuth Distance (km) Brightness Sun altitude
Exits shadow 03:48:40 13° 227° (SW) 1,244 2.5 -8.8°
Maximum altitude 03:51:07 33° 165° (SSE) 667 1.6 -8.4°
Drops below altitude 10° 03:53:59 10° 99° (E) 1,399 4.1 -8.1°
Sets 03:56:10 0° 89° (E) 2,254 5.4 -7.8°
